Location: Battlefield Observatory
(36.7579°N, 76.2613°W)
Time: 07:00:15
(UTC-04:00)

Envisat - Visible Passes

Search period start: 20 October 2019 00:00
Search period end: 30 October 2019 00:00
Orbit: 764 x 766 km, 98.1° (Epoch: 20 October)

Date Brightness Start Highest point End Pass type
(mag) Time Alt. Az. Time Alt. Az. Time Alt. Az.
20 Oct 5.3 20:10:02 10° SSW 20:14:08 25° W 20:18:18 10° NW visible
21 Oct 6.4 06:43:22 10° ENE 06:45:51 14° E 06:48:19 10° ESE visible
21 Oct 3.6 19:32:14 10° S 19:37:14 58° W 19:42:15 10° NNW visible
22 Oct 3.0 18:55:31 10° SSE 19:00:30 60° ENE 19:05:30 10° N visible
22 Oct 6.1 20:37:25 10° WSW 20:39:52 13° W 20:42:20 10° WNW visible
23 Oct 4.8 19:58:19 10° SSW 20:02:49 32° W 20:07:20 10° NW visible
24 Oct 6.7 06:34:10 10° E 06:34:27 10° E 06:34:44 10° E visible
24 Oct 3.2 19:20:54 10° S 19:25:57 76° WSW 19:31:03 10° NNW visible
25 Oct 3.2 18:44:27 10° SE 18:49:16 47° ENE 18:54:08 10° N visible
25 Oct 5.8 20:25:09 10° SW 20:28:30 18° W 20:31:52 10° NW visible
26 Oct 6.0 06:56:36 10° NE 07:00:13 19° E 07:03:50 10° SE visible
26 Oct 4.3 19:46:45 10° SSW 19:51:30 41° W 19:56:17 10° NNW visible
27 Oct 2.9 19:09:37 10° SSE 19:14:42 85° ENE 19:19:48 10° N visible
28 Oct 3.5 18:33:28 10° SE 18:38:05 36° ENE 18:42:42 10° N visible
28 Oct 5.4 20:13:12 10° SW 20:17:09 23° W 20:21:06 10° NW visible
29 Oct 6.2 06:45:58 10° ENE 06:48:51 15° E 06:51:44 10° SE visible
29 Oct 3.8 19:35:16 10° S 19:40:12 53° W 19:45:10 10° NNW visible
